Simultaneous Nadir Overpasses (SNOs) Predictions

Prediction of SNOs between LANDSAT-8 and METOP-B Satellite Orbit:

Table of predicted SNOs for the next 14.0 days since TLE Epoch: 3/29/2019
Index Date (LANDSAT-8) Time (LANDSAT-8) Lat,Lon (LANDSAT-8) SZA (LANDSAT-8 ) Date (METOP-B) Time (METOP-B) Lat,Lon (METOP-B) SZA (METOP-B ) Distance(km) Time Diff (sec)
1 03/30/2019 18:45:18 79.90, -74.80 76.98 03/30/2019 18:44:05 80.23, -76.36 77.14 47.31 73
2 03/30/2019 19:34:05 -81.11, 105.71 100.90 03/30/2019 19:34:03 -81.10, 105.72 100.90 0.37 2
3 03/30/2019 20:23:31 81.11, -86.57 79.10 03/30/2019 20:24:43 81.12, -86.54 79.14 0.82 72
4 04/02/2019 14:18:53 81.07, 4.02 77.98 04/02/2019 14:17:47 81.08, 4.11 77.97 1.75 66
5 04/02/2019 15:08:19 -81.10, 171.99 101.98 04/02/2019 15:08:26 -81.10, 172.04 101.97 1.03 7
6 04/05/2019 09:53:07 81.08, 70.60 76.96 04/05/2019 09:52:10 81.09, 70.78 76.95 3.01 57
7 04/05/2019 10:42:33 -81.11,-121.40 103.01 04/05/2019 10:42:49 -81.11,-121.27 102.99 2.25 16
8 04/08/2019 05:27:21 81.09, 137.16 75.94 04/08/2019 05:26:34 81.08, 137.05 75.90 2.10 47
9 04/08/2019 06:16:48 -81.09, -55.19 104.08 04/08/2019 06:17:14 -81.09, -55.35 104.08 2.76 26
10 04/11/2019 01:01:35 81.07,-156.67 74.87 04/11/2019 01:00:57 81.08,-156.69 74.86 0.55 38




NCC Satellite Simultaneous Nadir Overpasses (SNOs) Prediction Service
